Weather History for EGPM - December, 2012

Change the Weather History Date:

Wednesday, December 19, 2012

  Actual Average Record
Temperature  
Mean Temperature 42 °F -  
Max Temperature 42 °F 41 °F 50 °F (2006)
Min Temperature 41 °F 37 °F 26 °F (2010)
Degree Days  
Heating Degree Days 24    
Moisture  
Dew Point 37 °F    
Average Humidity 81    
Maximum Humidity 93    
Minimum Humidity 70    
Precipitation  
Precipitation 0.00 in - - ()
Sea Level Pressure  
Sea Level Pressure 30.17 in    
Wind  
Wind Speed 15 mph ()    
Max Wind Speed 29 mph    
Max Gust Speed 39 mph    
Visibility 6.1 miles    
Events Rain    
Averages and records for this station are not official NWS values.
T = Trace of Precipitation, MM = Missing Value Source: Averaged Metar Reports

Daily Weather History Graph

Daily Weather History Graph

Search for Another Location

Airport or City:

Trip Planner

Search our weather history database for the weather conditions in past years. The results will help you decide how hot, cold, wet, or windy it might be!

Date:

Astronomy

Dec. 19, 2012 Rise Set
Actual Time 9:10 AM GMT 2:54 PM GMT
Civil Twilight 8:11 AM GMT 3:53 PM GMT
Nautical Twilight 7:13 AM GMT 4:51 PM GMT
Astronomical Twilight 6:20 AM GMT 5:43 PM GMT
Moon 11:24 AM GMT (12/19) No Moon Set
Length of Visible Light 7h 42m
Length of Day
5h 44m
Waxing Crescent, 42% of the Moon is Illuminated
Dec 19
Waxing Crescent
Dec 20
First Quarter
Dec 28
Full
Jan 5
Last Quarter
Jan 11
New

Hourly Weather History & Observations

Time (GMT) Temp. Windchill Dew Point Humidity Pressure Visibility Wind Dir Wind Speed Gust Speed Precip Events Conditions
12:20 AM 42.8 °F 36.6 °F 41.0 °F 93% 30.15 in 6.2 mi SSE 11.5 mph - N/A   Mostly Cloudy
12:50 AM 42.8 °F 37.0 °F 41.0 °F 93% 30.18 in 6.2 mi SSE 10.4 mph - N/A   Drizzle
1:20 AM 42.8 °F 36.2 °F 39.2 °F 87% 30.18 in 6.2 mi SSE 12.7 mph - N/A   Mostly Cloudy
1:50 AM 42.8 °F 36.6 °F 39.2 °F 87% 30.18 in 6.2 mi SSE 11.5 mph - N/A   Mostly Cloudy
2:20 AM 42.8 °F 38.0 °F 39.2 °F 87% 30.18 in 6.2 mi SE 8.1 mph - N/A   Mostly Cloudy
2:50 AM 42.8 °F 37.0 °F 39.2 °F 87% 30.18 in 6.2 mi SE 10.4 mph - N/A   Mostly Cloudy
3:20 AM 42.8 °F 36.6 °F 39.2 °F 87% 30.18 in 6.2 mi SSE 11.5 mph - N/A   Mostly Cloudy
3:50 AM 42.8 °F 36.2 °F 39.2 °F 87% 30.18 in 6.2 mi SSE 12.7 mph - N/A   Mostly Cloudy
4:20 AM 42.8 °F 36.2 °F 39.2 °F 87% 30.18 in 6.2 mi SSE 12.7 mph - N/A Rain Rain
4:50 AM 42.8 °F 37.0 °F 39.2 °F 87% 30.18 in 6.2 mi SSE 10.4 mph - N/A   Mostly Cloudy
5:20 AM 42.8 °F 36.6 °F 37.4 °F 81% 30.18 in 6.2 mi SSE 11.5 mph - N/A   Scattered Clouds
5:50 AM 41.0 °F 34.3 °F 37.4 °F 87% 30.18 in 6.2 mi SSE 11.5 mph - N/A   Unknown
6:20 AM 42.8 °F 36.6 °F 37.4 °F 81% 30.18 in 6.2 mi SSE 11.5 mph - N/A   Scattered Clouds
6:50 AM 42.8 °F 36.6 °F 37.4 °F 81% 30.18 in 6.2 mi SSE 11.5 mph - N/A   Scattered Clouds
7:20 AM 42.8 °F 35.4 °F 39.2 °F 87% 30.18 in 6.2 mi SSE 15.0 mph - N/A   Scattered Clouds
7:50 AM 42.8 °F 35.1 °F 39.2 °F 87% 30.18 in 6.2 mi SSE 16.1 mph - N/A   Scattered Clouds
8:20 AM 42.8 °F 35.4 °F 37.4 °F 81% 30.18 in 6.2 mi SSE 15.0 mph - N/A   Scattered Clouds
8:50 AM 42.8 °F 35.1 °F 37.4 °F 81% 30.18 in 6.2 mi SSE 16.1 mph - N/A   Scattered Clouds
9:20 AM 42.8 °F 34.3 °F 37.4 °F 81% 30.18 in 6.2 mi SE 19.6 mph - N/A   Scattered Clouds
9:50 AM 42.8 °F 34.8 °F 35.6 °F 76% 30.18 in 6.2 mi SSE 17.3 mph - N/A   Scattered Clouds
10:20 AM 42.8 °F 34.0 °F 35.6 °F 76% 30.18 in 6.2 mi SE 20.7 mph 32.2 mph N/A   Partly Cloudy
10:50 AM 42.8 °F 33.5 °F 37.4 °F 81% 30.18 in 6.2 mi SE 23.0 mph - N/A   Partly Cloudy
11:20 AM 42.8 °F 34.5 °F 37.4 °F 81% 30.18 in 6.2 mi SSE 18.4 mph - N/A   Scattered Clouds
11:50 AM 42.8 °F 34.0 °F 37.4 °F 81% 30.18 in 6.2 mi SSE 20.7 mph - N/A   Scattered Clouds
12:20 PM 42.8 °F 34.5 °F 37.4 °F 81% 30.18 in 6.2 mi SSE 18.4 mph - N/A Rain Light Rain Showers
12:50 PM 42.8 °F 34.5 °F 35.6 °F 76% 30.18 in 6.2 mi SSE 18.4 mph - N/A   Scattered Clouds
1:20 PM 42.8 °F 34.8 °F 35.6 °F 76% 30.18 in 6.2 mi SSE 17.3 mph - N/A Rain Light Rain Showers
1:50 PM 42.8 °F 35.4 °F 35.6 °F 76% 30.18 in 6.2 mi SSE 15.0 mph - N/A   Scattered Clouds
2:20 PM 42.8 °F 33.3 °F 33.8 °F 70% 30.18 in 6.2 mi SSE 24.2 mph - N/A   Partly Cloudy
2:50 PM 42.8 °F 34.0 °F 33.8 °F 70% 30.15 in 6.2 mi SSE 20.7 mph - N/A   Partly Cloudy
3:20 PM 42.8 °F 33.5 °F 33.8 °F 70% 30.15 in 6.2 mi SSE 23.0 mph - N/A   Partly Cloudy
3:50 PM 42.8 °F 34.0 °F 37.4 °F 81% 30.18 in 6.2 mi SSE 20.7 mph - N/A Rain Light Rain Showers
4:20 PM 41.0 °F 30.9 °F 37.4 °F 87% 30.18 in 5.6 mi SSE 24.2 mph - N/A Rain Rain Showers
4:50 PM 42.8 °F 33.1 °F 37.4 °F 81% 30.18 in 5.6 mi SE 25.3 mph - N/A Rain Light Rain Showers
5:20 PM 41.0 °F 30.2 °F 37.4 °F 87% 30.18 in 5.6 mi SE 27.6 mph 39.1 mph N/A Rain Light Rain Showers
5:50 PM 42.8 °F 32.5 °F 33.8 °F 70% 30.15 in 5.6 mi SE 28.8 mph - N/A Rain Light Rain Showers
6:20 PM 41.0 °F 30.2 °F 35.6 °F 81% 30.15 in 5.6 mi SE 27.6 mph 39.1 mph N/A Rain Light Rain Showers
6:50 PM 41.0 °F 30.9 °F 33.8 °F 76% 30.15 in 6.2 mi SE 24.2 mph 35.7 mph N/A   Scattered Clouds
7:20 PM 41.0 °F 31.1 °F 33.8 °F 76% 30.15 in 6.2 mi SE 23.0 mph - N/A   Scattered Clouds
7:50 PM 41.0 °F 31.6 °F 33.8 °F 76% 30.15 in 6.2 mi SE 20.7 mph - N/A   Mostly Cloudy
8:20 PM 41.0 °F 31.4 °F 33.8 °F 76% 30.15 in 6.2 mi SE 21.9 mph 33.4 mph N/A   Overcast
8:50 PM 41.0 °F 31.1 °F 33.8 °F 76% 30.15 in 6.2 mi SE 23.0 mph - N/A Rain Rain
9:20 PM 41.0 °F 31.9 °F 35.6 °F 81% 30.15 in 6.2 mi SE 19.6 mph - N/A Rain Rain
9:50 PM 41.0 °F 31.1 °F 35.6 °F 81% 30.15 in 6.2 mi SE 23.0 mph - N/A   Scattered Clouds
10:20 PM 41.0 °F 30.9 °F 35.6 °F 81% 30.15 in 6.2 mi SE 24.2 mph - N/A Rain Rain
10:50 PM 41.0 °F 31.1 °F 33.8 °F 76% 30.15 in 6.2 mi SE 23.0 mph - N/A   Scattered Clouds
11:20 PM 41.0 °F 31.1 °F 35.6 °F 81% 30.15 in 6.2 mi SE 23.0 mph 34.5 mph N/A Rain Heavy Rain
11:50 PM 41.0 °F 30.9 °F 32.0 °F 70% 30.12 in 6.2 mi SE 24.2 mph - N/A   Scattered Clouds